Flag for Norway Weather past 2 weeks in Eidsvoll, Norway

Now
50 °F

Light rain. Partly sunny.


Feels Like: 47 °F
Forecast: 36 / 46 °F
Wind: 8 mph from North

Location: Oslo Gardermoen Airport

Current Time: Sep 21, 2014 at 10:50:03 AM

Latest Report: Sep 21, 2014 at 10:20 AM


Visibility: N/A

Pressure: 29.80 "Hg

Humidity: 94%

Dew point: 48 °F

Location of EidsvollLocation

Historic Weather in Eidsvoll — Graph

°F

Eidsvoll temperature yesterday

Maximum temperature yesterday: 55 °F (at 7:50 PM)
Minimum temperature yesterday: 43 °F (at 1:50 AM)
Average temperature yesterday: 48 °F

Past Weeks' High & Low Weather Summary

 TemperatureHumidityPressure
High68 °F (Sep 6, 2:50 PM)100% (Sep 8, 9:50 PM)30.48 "Hg (Sep 8, 9:50 PM)
Low37 °F (Sep 19, 6:20 AM)43% (Sep 13, 4:50 PM)29.74 "Hg (Sep 9, 4:20 AM)
Average54 °F82%30.16 "Hg
* Reported Sep 6 9:20 AM — Sep 21 9:20 AM, Eidsvoll, Weather by CustomWeather, © 2014

Note: Actual official high and low records may vary slightly from our data, if they occured in-between our weather recording intervals... More about our weather records

Advertising

Eidsvoll weather history for previous 24 hours

 ConditionsComfort  
Time TempWeatherWind HumidityBarometerVisibility
9:20 AM
Sep 21
50 °FLight rain. Broken clouds.13 mph94%29.80 "HgN/A
8:50 AM50 °FLight rain. Partly sunny.10 mph94%29.80 "HgN/A
8:20 AM50 °FLight rain. Partly sunny.14 mph94%29.77 "HgN/A
7:50 AM52 °FRain. Partly cloudy.13 mph88%29.77 "Hg4 mi
7:20 AM52 °FRain. Passing clouds.6 mph94%29.77 "Hg4 mi
6:50 AM52 °FLight rain. Partly cloudy.10 mph94%29.77 "Hg4 mi
6:20 AM52 °FLight rain. Partly cloudy.2 mph94%29.77 "Hg5 mi
5:50 AM52 °FLight rain. Partly cloudy.7 mph94%29.77 "Hg4 mi
5:20 AM52 °FLight rain. Partly cloudy.6 mph94%29.77 "Hg4 mi
4:50 AM52 °FLight rain. Partly cloudy.5 mph94%29.77 "Hg3 mi
4:20 AM50 °FLight rain. Passing clouds.3 mph100%29.80 "Hg3 mi
3:50 AM50 °FLight rain. Partly cloudy.2 mph100%29.80 "Hg3 mi
3:20 AM52 °FLight rain. Partly cloudy.3 mph94%29.80 "Hg4 mi
2:50 AM52 °FLight rain. Partly cloudy.3 mph94%29.80 "Hg4 mi
2:20 AM50 °FRain. Partly cloudy.2 mph94%29.83 "Hg3 mi
1:50 AM50 °FLight rain. Passing clouds.No wind94%29.80 "Hg4 mi
1:20 AM50 °FLight rain. Clear.2 mph100%29.80 "Hg4 mi
12:50 AM52 °FSprinkles. Clear.2 mph94%29.80 "Hg5 mi
12:20 AM50 °FScattered showers. Clear.3 mph100%29.80 "Hg6 mi
11:50 PM
Sep 20
52 °FLight rain. Clear.2 mph94%29.83 "Hg6 mi
11:20 PM52 °FClear.1 mph94%29.83 "Hg6 mi
10:20 PM52 °FClear.2 mph94%29.83 "Hg10 mi
9:50 PM54 °FClear.No wind88%29.83 "Hg10 mi
9:20 PM54 °FPassing clouds.No wind88%29.86 "HgN/A
8:50 PM52 °FPassing clouds.3 mph94%29.86 "HgN/A
8:20 PM54 °FSunny.5 mph88%29.86 "Hg10 mi
7:50 PM55 °FSunny.2 mph82%29.86 "Hg10 mi
3:20 PM54 °FPassing clouds.2 mph82%29.89 "HgN/A
2:50 PM52 °FPartly sunny.3 mph88%29.92 "Hg5 mi
2:20 PM50 °FLow clouds.5 mph94%29.92 "Hg4 mi
1:50 PM50 °FMostly cloudy.5 mph94%29.95 "Hg4 mi
1:20 PM50 °FCool.3 mph94%29.95 "Hg3 mi
12:50 PM48 °FFog.2 mph100%29.95 "Hg2 mi
12:20 PM48 °FCool.1 mph100%29.95 "Hg2 mi
11:50 AM48 °FCool.2 mph100%29.95 "Hg1 mi
11:20 AM48 °FCool.2 mph100%29.95 "Hg2 mi
10:50 AM48 °FCool.2 mph94%29.95 "Hg2 mi
10:20 AM48 °FCool.1 mph100%29.98 "Hg2 mi
Weather by CustomWeather, © 2014

See weather overviewHow to use our weather pages